Guymon, OK

9:24 AM CST on February 27, 2017 (GMT -0600)
Guymon Municipal

Weather History for KGUY - October, 2010

Change the Weather History Date:

Tuesday, October 12, 2010

  Actual Average Record
Temperature  
Mean Temperature 61 °F 59 °F  
Max Temperature 77 °F 73 °F 90 °F (1999)
Min Temperature 45 °F 44 °F 36 °F (2003)
Degree Days  
Heating Degree Days 4 7  
Month to date heating degree days 27 69  
Since 1 July heating degree days 30 112  
Cooling Degree Days 0 1  
Month to date cooling degree days 25 21  
Year to date cooling degree days 1823 1475  
Growing Degree Days 10 (Base 50)    
Moisture  
Dew Point 43 °F    
Average Humidity 57    
Maximum Humidity 80    
Minimum Humidity 33    
Precipitation  
Precipitation 0.00 in 0.05 in 1.74 in (2008)
Month to date precipitation 0.06 0.71  
Year to date precipitation 14.32 17.27  
Snow  
Snow 0.00 in - - ()
Month to date snowfall 0.0  
Since 1 July snowfall 0.0  
Since 1 September snowfall 0.0  
Snow Depth 0.00 in    
Sea Level Pressure  
Sea Level Pressure 30.13 in    
Wind  
Wind Speed 13 mph (NNW)    
Max Wind Speed 26 mph    
Max Gust Speed 36 mph    
Visibility 10 miles    
Events      
T = Trace of Precipitation, MM = Missing Value Source: NWS Daily Summary

Daily Weather History Graph

Daily Weather History Graph

Search for Another Location

Airport or City:

Trip Planner

Search our weather history database for the weather conditions in past years. The results will help you decide how hot, cold, wet, or windy it might be!

Date:

Astronomy

Oct. 12, 2010 Rise Set
Actual Time 7:50 AM CDT 7:13 PM CDT
Civil Twilight 7:24 AM CDT 7:39 PM CDT
Nautical Twilight 6:54 AM CDT 8:09 PM CDT
Astronomical Twilight 6:24 AM CDT 8:39 PM CDT
Moon 1:16 PM CDT (10/12) 11:00 PM CDT (10/12)
Length of Visible Light 12h 14m
Length of Day
11h 22m
Waxing Crescent, 29% of the Moon is Illuminated
Oct 12
Waxing Crescent
Oct 14
First Quarter
Oct 22
Full
Oct 30
Last Quarter
Nov 5
New

Hourly Weather History & Observations

Time (CDT) Temp. Dew Point Humidity Pressure Visibility Wind Dir Wind Speed Gust Speed Precip Events Conditions
12:53 AM 51.1 °F 41.0 °F 68% 30.01 in 10.0 mi NW 6.9 mph - N/A   Clear
1:53 AM 50.0 °F 42.1 °F 74% 30.01 in 10.0 mi WNW 9.2 mph - N/A   Clear
2:53 AM 48.9 °F 42.1 °F 77% 30.03 in 10.0 mi West 8.1 mph - N/A   Clear
3:53 AM 46.9 °F 39.9 °F 77% 30.03 in 10.0 mi West 11.5 mph - N/A   Clear
4:53 AM 48.0 °F 39.9 °F 74% 30.02 in 10.0 mi West 9.2 mph - N/A   Clear
5:53 AM 46.9 °F 39.9 °F 77% 30.05 in 10.0 mi WNW 3.5 mph - N/A   Clear
6:53 AM 48.0 °F 39.9 °F 74% 30.06 in 10.0 mi West 11.5 mph - N/A   Clear
7:53 AM 46.9 °F 39.9 °F 77% 30.09 in 10.0 mi West 12.7 mph - N/A   Clear
8:53 AM 53.1 °F 41.0 °F 64% 30.11 in 10.0 mi WNW 9.2 mph - N/A   Clear
9:53 AM 63.0 °F 42.1 °F 46% 30.12 in 10.0 mi NNW 13.8 mph - N/A   Clear
10:53 AM 69.1 °F 39.9 °F 35% 30.12 in 10.0 mi North 21.9 mph 27.6 mph N/A   Clear
11:53 AM 71.1 °F 43.0 °F 36% 30.13 in 10.0 mi North 23.0 mph 28.8 mph N/A   Clear
12:53 PM 73.0 °F 46.0 °F 38% 30.14 in 10.0 mi NNE 17.3 mph 32.2 mph N/A   Clear
1:53 PM 73.9 °F 46.9 °F 38% 30.13 in 10.0 mi North 21.9 mph 27.6 mph N/A   Scattered Clouds
2:53 PM 75.0 °F 46.0 °F 36% 30.12 in 10.0 mi North 20.7 mph 28.8 mph N/A   Scattered Clouds
3:53 PM 73.0 °F 45.0 °F 37% 30.14 in 10.0 mi North 16.1 mph 26.5 mph N/A   Mostly Cloudy
4:53 PM 73.0 °F 44.1 °F 35% 30.14 in 10.0 mi North 21.9 mph 27.6 mph N/A   Clear
5:53 PM 70.0 °F 45.0 °F 41% 30.17 in 10.0 mi North 15.0 mph 21.9 mph N/A   Mostly Cloudy
6:53 PM 68.0 °F 46.0 °F 45% 30.19 in 10.0 mi NNE 15.0 mph - N/A   Partly Cloudy
7:53 PM 60.1 °F 46.0 °F 60% 30.23 in 10.0 mi North 6.9 mph - N/A   Clear
8:53 PM 55.9 °F 45.0 °F 67% 30.24 in 10.0 mi NNW 8.1 mph - N/A   Clear
9:53 PM 55.9 °F 44.1 °F 64% 30.26 in 10.0 mi North 6.9 mph - N/A   Clear
10:53 PM 57.9 °F 45.0 °F 62% 30.26 in 10.0 mi North 6.9 mph - N/A   Mostly Cloudy
11:53 PM 54.0 °F 44.1 °F 69% 30.28 in 10.0 mi North 4.6 mph - N/A   Partly Cloudy